Printer-friendly version

IAU Minor Planet Center

Minor Planet Center

MPEC 2006-K79 : 2006 CS

The following Minor Planet Electronic Circular may be linked-to from your own Web pages, but must not otherwise be redistributed electronically.


Read MPEC 2006-K78 Read MPEC 2006-K80


M.P.E.C. 2006-K79                                Issued 2006 May 30, 18:03 UT

     The Minor Planet Electronic Circulars contain information on unusual
         minor planets and routine data on comets.  They are published
   on behalf of Commission 20 of the International Astronomical Union by the
          Minor Planet Center, Smithsonian Astrophysical Observatory,
                          Cambridge, MA 02138, U.S.A.

                  Supported in part by the Brinson Foundation
                  Supported in part by the TABASGO Foundation
             Prepared using the Tamkin Foundation Computer Network

                              MPC@CFA.HARVARD.EDU
          URL http://cfa-www.harvard.edu/iau/mpc.html  ISSN 1523-6714

                                    2006 CS

                           Revision to MPEC 2006-C28

Additional Observations:
     K06C00S  C1996 06 20.27683 10 51 58.72 +48 02 23.0          18.5 R EK079566
     K06C00S  C1996 06 20.29478 10 52 04.72 +48 02 30.6          18.4 R EK079566
     K06C00S  C1996 06 20.31341 10 52 10.78 +48 02 38.0          18.7 R EK079566
     K06C00S  C1996 06 21.28275 10 57 31.23 +48 09 17.6          18.2 R EK079566
     K06C00S  C1996 06 21.30009 10 57 36.86 +48 09 23.9          18.8 R EK079566
     K06C00S  C1996 06 21.31834 10 57 42.81 +48 09 30.3          18.7 R EK079566
     K06C00S  C2006 05 29.92209 09 38 53.60 +52 07 18.3                 EK079J95
     K06C00S  C2006 05 29.92509 09 38 54.65 +52 07 21.7                 EK079J95
     K06C00S  C2006 05 29.92796 09 38 55.75 +52 07 25.6          18.2 R EK079J95

Observer details:
566 Haleakala-NEAT/GEODSS.  Observers R. Bambery, E. Helin, S. Pravdo,
    M. Hicks, K. Lawrence, P. Kervin.  Measurer R. Matson.  1.0-m f/2.2
    Ritchey-Chretien + CCD.
J95 Great Shefford.  Observer P. Birtwhistle.  0.40-m f/6.0 Schmidt-Cassegrain
    + CCD.

First and last observations above in comparison with prediction:
Residuals in seconds of arc (or two decimals in degrees), reference and Delta-T
960620 566 0.51- 0.52-    060529 J95  4.0+ 17.6+    MPO 98139   -0.00076 day

Orbital elements:
2006 CS                                                  Earth MOID = 0.0960 AU
Epoch 2006 Mar. 6.0 TT = JDT 2453800.5                  MPC
M 351.33102              (2000.0)            P               Q
n   0.19741827     Peri.  346.29647     -0.94387123     -0.31345836
a   2.9210870      Node   172.41979     +0.32418293     -0.81860582
e   0.6964341      Incl.   52.15419     -0.06334449     +0.48127786
P   4.99           H   16.2           G   0.15           U   1
Residuals in seconds of arc
960620 566  0.2-  0.2-    060203 E12  1.2+  0.4+    060308 428  0.3+  0.2-
960620 566  0.8+  0.2-    060203 E12  0.2-  1.4-    060311 428  0.9+  0.2-
960620 566  0.0   0.5-    060203 E12  0.6-  0.2+    060311 428  0.3+  0.3-
960621 566  0.5+  0.2-    060203 E12  0.9+  0.5+    060311 428  0.2+  0.6-
960621 566  0.2+  0.0     060203 E12  0.1-  0.4-    060407 428  0.1-  0.1-
960621 566  0.0   0.0     060203 E12  0.9-  0.5-    060407 428  0.4+  0.4-
060201 E12  0.1+  0.0     060203 E12  0.1-  0.2-    060417 G88  0.2+  0.1-
060201 E12  0.7-  0.2+    060203 E12  0.1-  0.8+    060417 G88  1.9-  0.3+
060201 E12  0.1-  0.0     060203 E12  0.3+  0.1+    060427 J65 (3.6-  2.5+)
060201 E12  0.2-  0.5+    060204 474  0.2-  0.4-    060507 703  0.6-  0.4+
060201 E12  0.3+  0.3-    060204 474  0.1+  0.2-    060507 703  0.6+  0.5-
060201 E12  0.2+  0.5+    060204 474  0.0   0.0     060507 703  0.9-  0.8-
060201 E12  0.3-  0.2-    060204 474  0.4-  0.0     060529 J95  0.5+  0.2+
060201 E12  0.3+  0.2-    060206 E12  0.0   0.0     060529 J95  0.1-  0.3-
060201 E12  0.3+  0.5-    060208 E12  0.2-  0.3-    060529 J95  0.1+  0.2-
060201 E12  0.3+  0.4+    060208 E12  0.2-  0.1+
060201 E12  0.5-  0.5-    060308 428  1.3+  0.1-

Ephemeris:
2006 CS                  a,e,i = 2.92, 0.70, 52                  q = 0.8867
Date    TT    R. A. (2000) Decl.     Delta      r     Elong.  Phase     V
2006 05 25    09 08.03   +49 56.6    0.914    1.038    64.9    62.1    18.3
2006 06 04    10 10.43   +53 38.6    1.016    1.118    66.8    56.5    18.5
2006 06 14    11 09.64   +54 51.3    1.120    1.206    68.5    51.6    18.8
2006 06 24    12 02.78   +54 16.7    1.225    1.299    70.2    47.4    19.0
2006 07 04    12 48.97   +52 28.8    1.328    1.395    71.7    43.8    19.2
2006 07 14    13 28.77   +49 53.1    1.431    1.493    73.0    40.6    19.4
2006 07 24    14 03.35   +46 46.9    1.534    1.591    74.1    37.9    19.7
2006 08 03    14 33.93   +43 23.0    1.639    1.687    74.9    35.5    19.9
2006 08 13    15 01.48   +39 51.1    1.749    1.783    75.2    33.3    20.1
2006 08 23    15 26.77   +36 18.5    1.863    1.878    75.1    31.4    20.3
2006 09 02    15 50.39   +32 51.0    1.984    1.970    74.5    29.6    20.4
2006 09 12    16 12.71   +29 33.5    2.111    2.061    73.3    27.9    20.6
2006 09 22    16 34.03   +26 29.3    2.244    2.150    71.6    26.3    20.8
2006 10 02    16 54.57   +23 41.1    2.384    2.238    69.4    24.8    21.0
2006 10 12    17 14.44   +21 10.5    2.528    2.323    66.8    23.3    21.1
2006 10 22    17 33.74   +18 58.4    2.676    2.406    63.7    21.8    21.3
2006 11 01    17 52.52   +17 05.3    2.825    2.487    60.3    20.3    21.4

Kyle E. Smalley              (C) Copyright 2006 MPC           M.P.E.C. 2006-K79

Read MPEC 2006-K78 Read MPEC 2006-K80


Our Web policy. Index to the CBAT/MPC/ICQ pages.


Valid HTML 4.01!